Wind_Speed
30 30 30 29 27 26 25 24 23 22 20 19 19 19 19 19 19 18 17 17 16 15 15 15 15 14 14 13 13 12 11 11 11 10 10 9 9 10 10 10 9 8 7 7 7 8 9 10 10 10 10 10 11 12 13 13 12 10 8 7 6 6 6 6 5 5 6 6 6 6 6 5 5 4 3 2 2 2 2 3 3 3 3 4 5
31 32 32 31 30 28 27 27 25 23 22 21 20 20 20 20 20 19 18 18 17 16 16 15 15 15 15 14 14 13 12 12 12 11 11 10 10 11 11 11 11 10 9 8 8 8 8 9 10 10 10 10 11 12 13 13 13 11 9 8 7 6 6 5 5 5 5 5 5 5 5 5 5 6 5 4 3 3 3 4 4 3 3 4 6
32 33 33 33 32 31 30 29 27 25 23 22 22 22 22 21 21 20 20 19 18 18 17 16 16 16 16 15 15 14 13 12 12 12 12 11 11 11 12 12 12 11 10 9 9 8 8 8 9 9 10 10 10 11 13 13 13 12 11 10 9 8 7 6 6 5 5 5 4 4 4 4 5 5 7 7 6 5 5 6 5 5 5 5 7
35 35 35 35 34 33 32 31 29 28 26 25 25 24 24 23 22 21 21 21 20 19 18 17 17 17 17 17 16 16 15 14 13 13 13 12 12 12 12 13 13 12 11 11 10 9 9 8 8 8 9 9 9 10 11 13 13 14 13 12 12 11 10 10 9 8 7 6 6 6 6 6 6 6 7 8 7 7 8 9 9 9 9 8 9
36 37 36 36 36 35 34 33 31 30 29 27 27 27 26 25 24 24 23 22 22 21 20 19 18 18 18 18 18 17 16 15 14 14 14 13 13 12 13 13 13 13 13 12 11 11 10 10 9 9 8 8 9 9 10 11 12 13 14 14 14 14 13 13 12 12 11 10 9 9 9 9 9 8 9 9 9 9 9 11 11 11 12 11 10
34 37 38 38 37 36 35 34 33 32 32 30 30 30 28 27 26 26 25 25 24 23 21 20 19 20 20 20 20 19 18 16 16 15 15 15 14 14 14 14 14 14 14 13 12 12 11 11 10 10 9 9 9 9 9 10 11 11 12 13 14 15 15 15 15 15 15 14 13 13 13 13 13 12 11 11 11 11 11 12 12 12 13 13 12
33 36 38 38 38 38 37 35 35 35 34 33 33 32 31 30 28 28 27 27 26 24 23 22 21 22 22 22 21 20 19 18 17 17 16 16 16 16 16 16 15 15 15 14 13 12 12 11 11 10 10 9 9 9 9 10 10 10 11 12 13 14 14 15 15 15 16 16 16 16 16 16 17 17 16 15 14 15 15 15 16 15 14 15 14
31 34 37 38 38 38 38 37 37 37 37 36 35 34 33 32 30 30 29 27 27 26 25 24 24 23 23 23 22 21 20 19 18 18 18 18 18 17 18 17 17 16 15 15 14 13 12 12 11 10 10 9 9 9 9 9 9 10 10 10 10 11 12 12 13 13 14 15 16 17 17 17 18 19 19 18 18 18 18 19 20 19 18 18 17
30 32 34 37 38 38 39 39 39 39 40 39 37 36 35 34 33 31 30 28 28 27 27 26 25 24 24 23 23 22 21 20 19 19 20 20 20 20 19 19 18 17 17 15 15 14 13 13 12 11 10 9 9 9 9 9 9 9 9 9 9 10 10 10 10 11 12 13 14 14 14 15 16 18 19 19 19 19 19 20 22 22 22 21 20
30 30 31 34 37 39 40 41 41 42 42 41 40 38 37 36 35 33 31 30 29 28 28 27 25 25 24 24 24 23 22 21 21 21 21 21 22 22 21 21 20 19 18 17 16 15 15 14 13 12 11 10 10 10 10 10 10 10 10 9 10 10 10 10 10 10 11 11 12 12 12 14 15 16 16 17 17 17 18 19 22 23 23 22 22
33 31 30 31 35 38 40 41 42 43 43 43 42 41 39 38 37 35 33 32 31 30 29 27 26 26 26 26 25 24 23 22 23 23 23 23 23 23 23 23 22 21 20 19 18 17 16 15 14 13 12 12 12 12 12 11 12 12 11 11 10 10 11 11 11 10 10 10 11 11 12 13 14 15 15 14 14 14 16 18 20 21 22 23 23
37 35 33 33 34 36 39 41 42 43 44 44 44 43 42 41 39 38 36 34 33 32 31 29 28 27 27 26 25 24 24 24 25 25 24 24 24 24 25 24 24 23 22 21 20 19 18 17 16 15 14 14 14 14 14 14 14 14 13 12 12 12 12 12 12 12 11 11 11 11 12 13 13 14 14 13 13 13 14 17 18 19 21 22 23
40 38 37 36 36 36 38 40 42 43 44 44 45 44 44 43 42 40 39 38 37 35 33 31 30 29 27 26 25 25 25 26 27 26 26 25 25 25 26 26 26 25 24 23 23 22 21 19 18 17 17 17 16 16 16 16 16 16 15 14 14 14 13 13 13 13 13 12 12 13 14 13 14 15 15 14 14 13 14 15 17 18 20 21 22
43 42 41 40 39 38 39 39 41 43 44 44 45 46 45 44 43 42 41 41 39 37 35 34 32 31 29 28 27 26 25 27 28 28 27 27 27 26 27 27 27 27 26 26 25 24 23 22 21 20 20 19 19 19 19 19 19 17 16 16 16 16 15 15 15 15 14 14 14 14 15 15 14 15 17 16 15 15 16 16 16 17 18 19 20
45 44 44 43 42 41 39 38 38 39 41 43 44 45 45 45 44 44 43 42 41 39 38 36 35 33 32 30 29 27 27 27 28 28 29 29 28 27 27 27 28 28 28 28 28 27 26 25 24 23 22 22 22 22 22 22 21 20 18 17 17 16 16 17 17 16 16 16 15 16 17 16 16 16 18 18 17 17 17 16 17 17 17 17 18
48 48 47 46 45 44 42 40 38 37 39 41 43 43 44 44 44 44 44 44 43 42 40 38 36 35 34 33 31 29 29 30 30 29 30 30 29 28 26 27 28 28 29 30 30 30 29 28 27 26 25 25 25 25 25 24 23 22 21 21 19 18 18 19 19 18 17 18 18 18 18 18 18 18 19 19 19 18 18 18 19 18 17 17 18
50 50 49 49 48 46 44 41 38 37 38 39 39 40 41 41 41 42 43 44 44 43 42 41 39 38 36 34 32 31 31 32 31 31 31 31 29 28 26 27 27 28 30 31 32 32 32 31 30 29 28 28 28 29 29 28 26 25 25 24 23 21 21 22 22 21 20 20 20 20 20 21 20 20 21 21 21 20 19 20 21 20 19 19 19
49 47 47 49 49 47 43 40 38 38 38 37 37 39 40 39 38 39 42 44 44 44 43 43 42 40 38 35 33 32 33 33 32 31 31 31 30 28 27 27 27 28 30 31 32 33 34 34 33 32 31 31 32 33 33 32 30 29 28 28 27 25 25 26 25 23 22 22 23 23 24 24 24 24 23 23 22 22 21 22 22 22 21 21 21
47 45 45 46 48 48 46 43 41 40 39 38 39 40 41 40 39 40 42 43 43 43 43 43 42 41 39 38 36 35 35 35 34 33 33 33 31 30 29 27 27 28 29 31 32 33 35 36 36 35 34 35 36 36 36 36 34 32 31 30 28 27 28 29 28 25 24 24 25 26 27 27 28 27 26 25 24 24 24 24 25 24 23 23 22
48 47 45 45 46 47 47 46 44 42 41 41 42 42 43 43 43 42 42 41 41 41 41 41 42 41 41 40 38 37 37 37 36 36 35 35 34 32 31 29 28 28 29 31 32 33 34 36 37 37 37 38 38 39 39 38 37 35 34 32 30 30 31 31 30 28 26 26 27 28 29 29 30 30 29 28 27 26 26 26 26 26 25 23 22
50 50 48 46 46 46 45 45 46 45 44 43 44 44 45 46 46 44 44 42 40 38 38 39 39 40 40 39 39 38 38 38 38 38 37 37 37 35 34 31 30 31 30 30 31 32 33 35 36 38 39 39 40 41 41 41 40 38 36 34 33 33 33 32 31 31 29 28 28 29 30 31 32 32 32 31 30 29 28 27 27 25 24 22 20
53 52 51 49 48 47 45 43 44 47 47 46 45 45 45 46 45 45 45 45 41 38 37 37 37 37 37 37 36 36 36 37 38 38 38 38 38 37 35 34 34 34 33 31 31 31 33 35 36 38 39 40 40 41 41 42 41 40 38 37 36 36 35 34 33 33 32 31 31 30 31 32 33 34 34 33 31 30 28 27 26 24 22 21 20
53 53 53 52 50 49 48 43 41 44 47 47 46 44 44 44 43 42 43 43 41 39 38 37 36 35 34 34 33 32 33 34 35 35 35 36 37 36 35 35 36 35 34 33 33 34 34 35 36 38 39 39 40 41 41 42 41 40 39 38 37 37 36 35 34 34 34 34 33 32 32 34 34 35 34 33 32 30 28 27 26 24 22 22 21
51 51 52 53 52 51 50 47 43 41 42 45 46 45 44 43 42 40 41 42 40 39 37 36 35 34 32 31 30 30 31 32 33 33 33 34 34 34 34 33 34 34 33 34 35 36 36 37 37 38 39 39 39 40 40 40 39 38 38 38 38 37 36 34 34 34 34 34 34 34 34 35 35 35 35 33 32 30 28 27 26 24 23 22 20
53 51 50 51 52 52 52 50 48 44 42 42 43 45 45 44 42 40 40 40 40 38 36 35 33 32 31 30 30 30 31 32 32 33 33 33 33 33 32 31 31 31 31 32 34 35 36 37 38 39 39 39 39 40 39 39 38 38 38 38 38 37 36 34 34 34 34 34 34 35 35 35 35 35 35 33 32 30 29 28 27 25 23 21 18
57 55 53 52 52 52 51 51 50 49 47 44 42 43 46 46 43 41 40 39 38 37 35 33 31 30 29 28 29 29 30 31 32 32 33 33 32 32 32 31 31 30 30 30 31 33 34 37 38 38 39 39 38 38 37 37 38 38 38 38 38 38 36 35 35 34 34 33 34 35 35 36 36 36 35 33 31 31 30 30 28 26 25 23 21
60 58 56 55 54 53 52 51 51 50 50 49 46 44 46 47 44 42 40 38 37 35 33 31 30 28 27 27 28 28 30 30 31 32 32 31 32 32 32 32 31 31 30 29 30 32 34 36 37 37 37 37 36 35 35 35 35 36 36 36 36 36 35 34 33 33 33 33 33 34 35 36 36 35 34 33 31 30 30 30 29 29 28 27 26
64 61 58 56 55 54 53 52 50 49 51 52 50 48 47 47 46 44 42 40 38 36 33 31 30 28 28 28 28 29 30 29 29 30 31 31 31 32 32 32 33 32 31 31 32 33 33 35 36 35 35 34 33 32 31 32 33 34 34 34 34 33 32 31 30 31 31 31 31 32 33 35 36 35 34 32 30 30 32 33 33 32 31 30 30
67 64 61 59 57 56 54 53 51 49 50 52 52 51 49 48 48 49 48 44 41 39 36 33 32 31 30 30 30 30 29 29 29 31 32 32 32 32 33 33 34 34 33 33 33 33 32 33 33 32 32 31 30 28 28 29 31 32 32 32 32 31 30 30 29 30 31 31 30 30 31 34 34 34 33 33 33 35 36 36 36 36 34 31 31
70 68 65 62 60 58 55 53 52 51 50 52 53 53 51 50 49 51 52 49 44 41 39 36 34 34 33 32 31 31 30 30 32 34 34 33 33 33 33 34 34 34 35 35 34 32 31 30 30 30 29 29 28 26 27 28 29 30 30 31 31 30 30 30 31 31 32 32 31 30 31 33 33 33 34 34 35 39 40 39 39 40 37 33 31
73 72 69 65 63 61 57 55 54 52 52 54 55 54 53 52 51 50 52 52 47 43 41 39 37 37 37 35 34 34 33 33 35 36 36 35 35 35 35 36 36 36 37 36 34 33 31 30 29 29 28 28 27 27 27 28 29 29 29 29 30 29 30 31 32 34 34 33 31 30 30 31 32 33 35 36 37 41 43 42 42 41 36 30 29
72 73 72 69 66 63 61 60 59 56 54 55 57 55 53 53 52 50 50 50 49 46 44 42 41 40 39 38 38 38 38 37 38 39 39 39 39 38 38 38 38 39 39 38 35 33 33 32 32 31 30 28 27 28 28 28 28 28 28 28 28 29 30 32 34 35 35 34 32 30 30 31 32 35 37 38 39 41 43 44 43 38 32 29 28
71 71 71 70 67 63 62 63 63 61 57 56 58 57 54 52 52 50 49 49 49 49 47 45 44 43 43 43 43 42 43 43 43 44 44 43 42 42 42 41 42 42 42 40 37 35 35 35 35 36 35 32 30 30 30 30 30 30 29 29 29 29 31 33 34 35 36 35 33 31 30 31 33 36 39 40 39 39 40 42 40 35 31 29 28
72 70 70 70 66 62 61 61 63 63 60 57 58 58 55 53 52 51 50 50 49 49 48 47 47 47 47 47 47 47 47 48 48 48 48 47 47 46 45 44 44 44 44 42 39 38 38 38 38 38 39 39 37 34 33 33 33 33 31 30 30 31 32 34 35 36 37 36 33 31 31 32 34 37 40 40 39 38 36 35 34 33 32 31 29
73 71 70 69 65 62 60 60 61 64 63 60 58 57 56 56 55 52 51 51 51 49 49 49 50 51 51 51 51 51 50 50 51 52 52 52 51 50 48 46 45 45 45 44 42 41 41 41 41 41 41 42 42 40 37 35 35 35 34 33 32 32 33 35 35 37 38 38 35 32 33 34 36 39 40 39 39 38 35 31 32 34 34 32 31
74 72 70 67 63 60 60 60 61 63 65 64 61 58 56 58 58 54 51 52 52 51 52 52 52 52 53 53 53 54 53 52 53 54 55 56 54 51 49 46 46 46 46 45 45 44 44 43 44 44 44 45 45 44 42 39 38 37 36 35 33 33 35 36 37 38 40 39 36 34 34 36 37 39 40 39 39 38 36 34 35 37 36 34 34
78 75 72 69 63 58 58 60 61 63 65 65 64 60 56 56 58 56 53 52 51 52 53 54 53 53 53 53 53 55 55 55 54 54 56 56 54 51 48 46 46 47 47 47 48 47 46 45 46 46 46 46 47 47 46 43 40 39 38 37 35 35 36 37 38 39 40 40 37 35 36 38 39 40 42 41 39 37 37 38 39 39 38 37 37
83 79 76 73 67 60 57 58 59 61 62 63 63 60 56 54 56 56 54 52 50 49 50 53 55 55 54 54 54 54 54 54 53 53 54 54 52 49 48 47 48 49 49 49 49 48 47 47 46 47 47 47 47 47 47 45 43 41 40 39 38 37 38 39 40 40 40 40 39 38 38 39 40 42 44 43 41 38 38 40 41 41 39 39 39
87 84 81 78 74 66 60 57 57 58 59 60 61 60 56 53 52 52 52 50 48 46 47 48 51 52 52 52 53 53 52 52 51 51 52 52 51 49 49 49 50 50 49 48 48 47 47 47 46 46 47 46 46 46 47 47 46 45 43 41 40 39 39 40 41 42 42 41 40 40 40 41 42 44 45 45 43 41 41 42 43 44 43 43 42
89 87 84 82 80 76 69 63 59 57 56 57 58 58 56 53 50 50 50 50 49 48 46 45 45 45 46 47 49 51 52 51 50 51 52 53 52 51 51 51 51 51 50 49 48 47 47 47 48 48 48 48 48 48 49 49 49 48 47 44 41 40 40 40 41 43 44 43 42 42 42 42 43 45 46 46 45 45 44 44 45 46 47 47 46
92 90 87 85 83 81 77 72 66 61 57 56 57 57 56 55 52 51 50 51 51 50 48 45 43 43 44 45 47 49 51 52 52 52 52 52 52 52 52 51 52 52 51 50 49 48 48 49 50 51 51 52 51 51 52 53 53 52 51 48 44 41 41 41 41 43 44 44 44 44 44 44 46 47 48 48 47 47 47 47 46 45 45 46 48
93 92 90 88 86 83 80 77 73 67 61 58 58 59 59 58 56 54 53 52 51 51 48 46 45 45 44 44 46 48 50 51 52 52 52 52 52 53 53 53 53 54 53 52 51 51 51 52 52 53 54 56 56 55 55 56 56 56 54 51 48 46 43 42 42 43 44 45 46 45 45 45 46 48 50 51 50 50 50 50 48 46 46 48 50
92 93 91 89 87 85 82 79 77 74 67 62 59 60 61 62 60 58 56 54 52 51 49 47 47 47 46 46 47 50 51 51 51 51 51 52 53 54 55 55 55 56 55 54 54 54 55 55 54 55 57 58 59 60 59 59 60 61 60 56 52 50 49 48 46 44 43 45 46 47 48 48 49 51 52 53 53 52 52 52 52 50 49 49 50
89 91 91 89 87 86 84 81 79 77 74 69 63 60 61 62 62 62 60 57 54 51 50 49 48 48 48 48 49 51 52 53 54 54 54 55 55 55 56 56 56 57 56 56 56 56 57 57 57 58 59 60 60 62 63 62 62 63 62 60 56 54 53 53 50 47 46 47 48 50 52 53 53 53 54 55 55 55 54 54 54 53 49 46 47
87 88 89 87 86 86 85 83 81 79 78 75 71 65 61 58 57 58 59 58 53 50 49 48 47 47 47 47 48 49 52 54 55 56 56 56 56 56 56 55 56 56 56 56 56 56 57 58 59 59 60 61 61 63 64 63 61 59 58 58 58 57 56 55 54 51 50 50 50 52 56 58 57 56 55 54 55 56 56 56 54 51 47 46 48
86 86 85 85 83 83 84 85 83 81 79 79 77 74 69 63 57 53 53 53 51 48 48 48 46 45 46 46 45 46 49 51 53 54 55 55 55 55 54 54 54 55 55 56 56 57 58 59 60 60 60 61 62 63 64 63 61 59 57 57 58 58 57 57 56 55 55 54 53 54 57 60 61 60 59 57 55 56 57 56 52 48 46 48 48
85 84 83 82 80 80 82 83 84 83 82 80 80 79 76 73 67 61 56 54 52 50 50 50 49 47 45 45 45 45 46 49 50 51 52 53 53 52 52 51 52 53 54 55 57 58 59 60 61 60 60 60 61 63 64 64 63 62 61 61 63 64 63 62 62 61 59 57 57 58 62 63 62 60 59 59 57 55 55 55 52 48 47 47 46
82 82 81 80 78 77 78 80 81 82 81 81 81 80 79 77 74 69 64 61 58 55 54 53 53 50 47 46 46 45 45 47 48 49 49 50 50 49 49 49 49 50 51 53 55 57 58 59 60 60 60 60 60 62 63 64 63 63 63 65 68 70 70 70 70 67 61 56 53 54 55 56 55 53 52 54 57 57 57 56 54 50 47 46 46
77 79 79 78 77 75 74 75 76 78 78 79 80 81 80 79 77 74 70 67 64 61 59 57 56 54 51 49 48 46 45 46 47 48 48 47 47 47 47 47 47 48 49 51 52 54 56 58 59 60 60 61 62 62 62 62 61 60 60 62 65 69 73 76 75 71 65 59 54 51 50 49 49 48 48 49 51 53 55 57 57 55 51 49 50
68 73 75 75 74 73 71 70 70 71 73 75 77 79 79 78 77 76 74 71 69 67 65 63 61 59 55 52 50 48 46 46 47 47 47 47 46 46 46 46 46 47 48 50 51 53 55 57 59 60 62 63 64 65 65 64 63 63 62 61 61 64 69 72 71 68 65 62 60 59 57 55 53 51 50 50 50 51 52 55 57 57 55 52 51
58 64 69 71 71 70 69 67 66 66 67 68 72 74 76 75 75 75 74 73 71 69 68 67 66 63 58 55 53 52 49 47 47 47 47 47 46 46 46 46 47 47 49 51 52 53 54 56 58 59 61 62 64 66 67 67 66 64 63 61 61 62 64 64 62 61 60 60 60 60 61 61 61 61 60 58 57 55 53 54 56 58 59 58 56
Wind_Direction
205 206 207 207 206 205 203 206 209 209 209 209 210 212 213 213 213 211 209 211 215 217 217 217 216 216 218 223 228 230 227 223 221 219 219 214 208 205 201 195 192 191 191 191 190 189 186 185 186 186 186 187 187 189 189 186 180 175 174 178 182 186 190 194 199 204 211 217 225 235 249 264 279 296 310 326 348 354 347 352 11 38 53 44 37
206 207 208 209 208 207 206 207 210 210 209 209 212 214 215 216 216 213 210 211 213 216 217 218 218 218 221 225 229 232 232 228 225 223 222 220 213 208 205 201 196 192 189 187 188 189 188 186 185 185 185 186 188 191 193 194 191 186 185 186 190 196 199 202 206 208 215 221 227 239 256 276 293 304 312 318 327 337 337 335 343 3 15 7 4
207 208 208 209 210 210 208 208 210 212 210 209 212 215 216 217 216 214 213 212 212 214 216 216 217 217 220 224 228 233 234 232 229 227 227 226 221 214 211 209 205 199 194 190 187 187 189 189 187 186 185 187 189 191 194 198 200 200 200 201 203 207 211 216 222 225 230 236 242 252 268 292 310 316 320 324 326 325 323 320 321 323 325 328 332
206 208 208 210 212 212 210 209 210 211 211 210 212 215 216 216 216 215 215 214 213 213 214 213 214 215 218 221 225 230 233 234 233 231 230 231 229 222 216 215 213 208 204 199 194 191 192 192 191 190 189 189 190 192 196 200 204 208 211 213 215 218 220 225 231 237 245 253 259 268 282 299 311 316 322 329 332 328 321 317 318 317 316 317 322
209 208 208 209 211 212 212 211 210 211 211 211 212 216 217 217 216 215 215 215 215 214 213 211 211 212 215 219 222 226 230 233 235 234 233 234 234 229 224 220 218 215 212 208 202 199 197 197 198 198 196 194 194 196 200 203 208 213 217 220 222 226 228 232 235 240 247 254 259 265 275 286 294 300 308 318 324 325 321 318 320 319 318 320 325
215 211 209 210 211 212 213 212 212 213 213 212 214 216 218 218 217 216 215 215 215 214 213 211 210 211 213 217 221 224 227 230 233 235 234 235 235 234 230 226 222 219 218 215 211 206 203 202 202 202 203 202 200 200 204 208 213 217 222 226 229 231 235 237 239 243 248 254 259 262 266 273 281 285 289 296 302 307 309 311 316 318 317 320 327
218 216 213 212 211 212 213 213 213 214 215 215 215 216 218 219 218 218 217 216 215 215 214 212 210 211 213 215 219 223 226 228 232 234 234 234 235 234 232 230 227 224 222 220 217 214 211 208 206 205 207 208 207 207 208 211 215 219 225 230 234 238 242 244 246 249 253 258 262 265 267 270 276 281 283 284 287 291 295 298 304 309 311 315 322
220 219 217 216 215 213 214 214 214 215 216 217 217 217 218 220 220 220 219 218 217 216 215 214 212 212 213 215 217 221 224 227 231 233 234 234 234 233 232 232 230 228 226 224 221 219 217 215 212 212 212 213 213 215 217 217 220 224 228 232 238 243 247 250 253 256 259 263 267 271 272 273 276 280 283 283 283 283 285 289 294 301 306 309 314
223 222 220 219 218 217 216 215 215 216 217 218 218 219 219 220 222 223 222 221 220 220 219 217 215 214 215 216 217 220 222 225 229 232 233 233 233 233 233 233 232 230 228 227 224 222 220 219 218 217 217 218 219 222 226 226 229 233 235 237 241 246 250 252 255 258 263 267 272 276 280 282 282 284 285 286 286 284 282 280 283 290 298 303 309
227 225 224 222 221 221 219 218 217 217 218 219 219 219 220 221 222 223 224 223 223 223 223 221 219 217 217 218 218 219 220 223 228 231 231 232 232 232 232 232 232 231 230 229 227 225 223 222 222 222 222 223 225 229 233 235 238 242 243 241 242 248 253 255 256 260 265 270 276 283 286 286 287 290 291 291 291 290 285 280 277 281 288 294 300
229 228 225 224 223 223 223 221 220 220 220 220 220 220 220 221 222 223 224 224 225 226 226 224 222 220 220 220 219 219 219 222 227 230 232 232 231 231 231 231 231 231 231 230 228 227 226 225 226 226 225 227 230 233 238 240 243 247 250 250 248 249 253 257 261 265 270 273 278 284 287 286 290 297 300 299 298 295 290 285 283 283 286 289 293
230 229 227 225 224 224 224 224 224 223 222 223 223 222 221 221 222 223 223 224 225 226 226 226 225 223 222 222 221 219 219 222 226 229 231 233 233 232 232 232 231 230 230 229 228 228 228 227 228 228 228 231 234 237 240 242 245 248 253 256 256 255 255 258 263 269 274 278 282 285 286 288 295 302 305 309 309 301 293 290 288 287 287 288 290
230 230 230 228 227 225 225 225 225 225 225 225 226 225 224 222 222 223 223 223 224 225 225 225 225 225 225 224 223 221 220 223 226 229 231 233 234 233 232 233 232 230 230 229 228 228 228 228 228 228 230 233 237 239 242 244 245 247 249 253 256 258 259 261 264 270 276 282 284 285 286 291 296 299 302 307 309 305 299 295 292 289 286 287 289
230 230 231 231 230 228 226 225 225 225 226 227 227 228 227 225 223 223 223 224 225 225 226 226 226 226 226 225 225 223 222 224 227 229 231 233 234 234 233 234 233 232 230 230 230 229 229 230 230 230 232 235 238 240 242 245 247 247 248 251 253 256 260 262 265 271 278 283 285 285 287 291 294 295 297 302 304 304 305 305 301 297 294 293 293
231 231 231 231 232 231 230 227 226 226 228 230 230 230 230 228 226 225 225 225 226 226 226 227 227 227 227 226 226 226 225 227 229 230 231 234 235 235 235 235 235 234 232 231 231 230 231 231 232 234 236 238 240 243 244 247 249 250 252 253 255 258 261 265 269 274 281 285 287 286 287 289 291 292 294 297 299 302 306 308 306 305 306 304 298
232 231 231 231 231 231 230 227 225 226 228 232 234 234 234 234 232 229 227 227 227 227 228 228 228 228 228 227 227 227 228 230 231 232 233 235 237 238 237 237 238 236 235 234 233 232 233 234 234 236 239 242 244 247 248 249 251 254 256 257 259 262 266 269 272 277 281 286 288 288 287 288 288 288 290 293 296 298 303 305 304 306 309 306 298
235 232 231 231 231 230 230 228 227 227 228 232 236 238 239 240 239 237 234 231 229 229 229 230 230 230 230 230 229 228 230 232 233 234 235 237 239 240 239 239 239 239 238 237 236 236 236 236 236 238 240 244 247 250 251 252 253 256 259 261 263 265 268 270 272 276 280 284 287 287 287 287 286 287 288 290 292 295 299 300 300 303 306 303 299
239 236 235 235 233 232 232 231 232 232 232 233 235 236 238 240 241 241 240 237 234 232 231 231 232 233 233 233 233 232 233 235 237 238 239 241 242 243 242 241 241 240 241 241 240 240 239 239 240 240 241 245 249 251 253 254 255 257 260 262 265 268 269 269 270 273 277 280 283 283 283 284 285 286 288 290 292 294 296 297 297 299 300 300 299
240 240 239 239 238 235 232 230 230 232 233 233 232 233 234 235 237 239 242 241 238 236 235 234 234 235 236 236 236 236 236 238 240 241 243 245 245 245 245 244 243 242 242 242 243 243 242 242 243 243 244 246 250 253 256 257 258 259 260 262 266 269 270 270 271 273 275 277 279 279 279 280 282 285 287 290 291 292 292 292 293 293 294 295 297
240 240 240 241 242 240 236 231 230 230 232 232 231 232 233 233 232 234 238 240 240 238 237 237 236 236 237 237 238 239 239 241 242 243 245 247 248 248 248 247 246 244 243 243 244 246 246 246 246 247 247 248 251 254 257 259 261 261 262 264 266 268 270 272 274 276 276 277 279 279 278 277 278 281 284 286 288 289 289 290 289 288 289 291 293
241 241 241 241 243 244 241 235 232 230 231 232 232 232 233 233 233 233 233 234 236 236 236 237 237 237 237 238 238 240 241 242 244 245 246 248 250 250 250 250 249 248 246 244 244 246 247 248 249 249 249 250 252 254 257 260 262 263 265 266 267 268 270 273 275 276 277 278 279 279 277 275 275 277 279 283 286 287 289 289 288 286 287 287 288
241 242 243 242 243 245 245 241 235 231 230 232 233 233 233 234 237 239 236 232 230 230 232 235 235 236 237 238 238 240 242 244 245 246 247 249 250 252 252 252 251 251 249 248 247 247 247 247 248 250 251 252 253 255 257 259 261 263 265 266 267 269 271 273 275 277 278 278 278 278 278 276 274 275 277 280 283 285 288 288 285 283 283 283 283
242 243 244 243 243 245 247 247 243 235 231 232 234 235 235 236 240 244 242 237 231 227 228 231 232 233 235 236 237 239 241 243 245 247 248 249 251 252 253 253 253 254 253 252 252 250 249 249 249 250 251 253 254 256 258 260 262 264 266 267 268 269 271 273 276 277 278 279 278 278 276 275 275 276 278 280 282 284 286 283 280 278 279 279 280
242 243 244 245 244 245 246 249 250 246 239 234 235 236 237 239 241 243 244 243 238 230 226 229 231 232 234 235 237 239 241 244 246 247 249 250 251 252 253 253 254 255 255 254 254 254 254 253 253 253 254 255 256 258 260 262 265 267 268 268 270 271 273 275 276 277 278 279 278 277 276 276 277 278 280 281 283 283 283 280 277 276 276 274 272
243 242 244 245 245 246 246 246 249 251 248 243 239 238 238 240 242 240 240 242 241 234 229 229 231 232 234 236 238 240 242 245 247 249 250 251 252 253 254 254 254 254 255 255 255 256 257 258 258 258 258 258 258 260 262 265 267 268 270 271 273 274 276 276 277 278 278 279 279 278 278 278 278 279 280 282 283 283 282 281 279 278 273 267 261
244 242 242 243 245 246 246 245 246 249 251 250 247 242 240 240 241 238 235 237 239 236 231 229 230 231 233 236 238 240 243 245 247 249 250 252 253 255 255 255 255 254 253 254 256 257 258 259 259 260 259 260 261 262 265 267 269 270 272 274 275 277 278 278 278 279 279 279 280 279 279 278 278 279 281 282 284 284 283 282 282 279 273 265 256
243 243 243 243 244 245 245 244 244 246 248 249 249 246 243 241 239 236 232 231 234 234 231 228 229 230 231 234 237 240 242 245 247 250 252 253 255 255 255 255 255 254 253 254 255 255 255 257 258 259 261 263 266 269 271 273 274 274 275 275 277 279 280 281 281 281 281 280 278 278 278 278 278 278 280 282 284 285 284 282 279 276 273 269 261
242 243 244 244 244 245 245 243 241 243 246 247 247 247 246 243 240 235 230 228 230 233 232 230 231 231 232 234 237 240 243 247 250 252 253 253 254 255 255 255 255 254 253 252 253 253 254 256 259 260 263 265 267 269 272 274 275 275 276 277 279 281 283 284 284 284 283 280 278 276 275 275 276 276 277 279 279 278 277 275 273 271 271 270 264
242 243 243 244 245 245 245 243 240 241 245 246 245 245 245 245 243 237 233 231 231 233 233 233 234 235 235 237 240 243 246 249 250 250 251 252 254 256 257 257 257 257 256 254 253 253 254 256 260 262 264 265 266 268 270 272 272 274 275 277 278 280 282 284 284 284 282 280 277 273 270 270 271 271 272 273 273 272 272 272 271 270 267 261 258
242 242 242 243 244 245 246 243 240 241 244 244 244 243 244 245 244 240 236 234 232 231 232 233 234 237 239 240 243 246 248 249 250 252 253 254 255 257 258 259 259 260 260 259 258 258 257 257 259 262 265 267 269 272 273 274 274 275 276 277 277 278 279 281 282 282 280 278 276 271 267 266 267 266 267 268 269 271 272 271 270 269 262 254 253
243 243 242 243 243 244 245 243 242 242 242 242 242 243 243 244 243 239 235 233 231 230 231 232 234 237 240 241 244 247 249 249 250 254 255 255 255 255 257 257 258 259 260 261 261 263 264 264 264 265 266 269 272 274 276 277 278 280 280 279 278 276 275 277 278 278 278 277 277 274 270 266 263 262 263 265 268 271 272 272 273 270 261 253 253
244 245 244 244 243 242 242 242 243 243 242 240 241 242 243 243 241 236 233 233 232 231 231 232 233 237 240 241 243 246 247 247 248 251 253 254 255 255 255 256 257 258 260 261 263 266 268 270 271 271 270 270 272 275 277 279 282 283 284 284 281 276 272 272 273 275 278 279 279 275 270 265 261 260 262 264 269 272 273 274 276 268 256 253 256
242 245 246 246 245 243 240 240 242 243 241 240 240 241 242 241 239 236 234 233 232 232 233 234 235 237 240 241 242 243 245 245 245 247 250 251 253 254 254 255 257 259 261 262 264 266 268 270 272 274 275 274 273 275 279 282 283 285 286 287 284 278 272 270 271 274 277 278 277 274 270 265 262 262 264 268 274 278 277 277 273 263 256 259 262
238 242 244 246 247 245 240 237 239 241 240 239 240 241 240 238 236 235 235 234 232 233 235 237 238 239 240 242 243 243 244 245 245 246 247 249 250 251 253 255 257 260 262 262 263 265 267 268 270 272 275 276 276 276 278 282 283 285 285 286 286 282 276 272 272 274 274 275 274 272 270 266 262 262 266 272 278 282 281 275 266 258 261 267 268
235 238 241 243 245 245 242 238 237 239 239 238 239 240 239 236 234 234 235 235 235 235 236 238 240 241 241 242 244 245 245 246 248 248 247 247 248 250 252 254 257 259 261 261 262 263 265 266 268 270 271 274 276 276 277 280 282 283 283 283 284 283 280 275 273 273 274 274 273 270 267 264 262 263 267 272 277 279 276 266 257 256 262 269 271
232 234 237 238 239 241 243 242 238 237 238 238 238 240 239 235 232 233 235 236 237 239 239 239 241 243 243 244 245 247 247 248 250 250 247 244 246 250 252 253 256 258 260 261 262 262 263 264 265 267 268 270 273 275 276 277 278 279 281 281 281 280 279 276 273 272 273 274 272 269 266 264 264 265 266 269 273 274 269 259 254 256 261 266 269
231 231 233 235 234 235 240 243 240 236 236 237 237 240 239 233 230 233 235 235 237 240 240 240 241 242 244 245 247 248 248 249 252 251 245 242 245 249 251 253 256 257 257 258 260 261 262 262 262 264 266 268 270 272 274 275 275 276 277 279 278 278 277 275 271 269 271 273 272 269 266 264 264 265 266 268 270 271 266 259 255 257 262 266 269
231 231 232 233 233 231 234 239 238 236 235 235 236 238 236 230 228 231 234 234 236 238 240 240 240 240 241 244 245 246 247 249 252 249 242 240 245 249 251 253 255 256 256 257 258 259 260 261 262 263 265 266 268 270 272 273 274 274 275 276 276 275 274 275 273 270 269 270 270 267 265 265 265 266 268 269 270 269 266 260 256 255 259 265 268
231 232 232 232 233 232 232 234 235 235 235 235 235 236 234 229 227 230 232 232 235 237 238 239 240 238 238 240 243 245 246 249 249 245 241 241 245 248 250 252 254 255 256 256 258 260 262 263 264 265 265 266 268 269 271 272 273 273 274 274 274 272 272 274 275 272 269 269 269 267 265 265 266 267 269 271 272 270 268 263 257 253 255 263 268
231 232 232 232 233 233 233 234 234 234 234 234 234 233 232 229 229 232 233 233 234 236 237 238 239 237 237 238 241 244 247 248 248 244 242 243 245 247 249 251 252 254 256 258 260 264 266 268 269 269 270 270 270 270 271 272 273 273 274 273 272 270 270 273 276 275 271 269 269 267 265 265 265 267 268 270 272 272 271 268 262 257 256 260 265
232 232 232 233 233 234 234 235 235 235 234 233 232 231 229 229 231 233 234 235 236 236 236 238 240 241 241 241 243 244 246 247 247 246 245 246 247 249 250 252 254 257 259 262 264 266 267 269 271 272 272 273 273 273 273 273 274 275 276 274 271 268 268 270 273 275 273 270 268 267 266 265 265 266 268 269 270 271 272 271 268 262 260 262 264
232 232 233 233 234 234 234 235 235 235 233 232 232 230 229 229 231 233 234 236 237 237 237 238 241 244 246 247 248 249 249 249 249 248 248 248 250 251 253 254 256 259 261 263 265 266 267 268 270 271 271 272 273 273 273 274 275 276 276 274 270 268 267 268 270 272 272 270 267 266 266 266 265 266 268 269 269 269 270 271 269 265 264 265 265
232 232 233 233 234 235 235 235 235 234 233 231 231 231 230 230 231 233 234 235 237 238 238 239 241 244 246 248 250 252 254 254 254 254 253 253 253 254 255 255 257 259 262 264 265 266 268 269 269 270 271 271 271 271 273 274 275 275 274 271 269 267 266 267 268 269 270 269 267 265 263 262 262 263 264 266 268 269 270 271 270 269 267 265 263
232 232 233 233 234 235 235 235 235 235 234 232 230 230 230 230 232 234 235 235 235 236 237 239 243 245 245 246 249 251 253 255 256 256 257 257 257 257 257 257 258 260 263 264 265 267 269 270 270 271 271 271 271 272 273 274 275 275 272 269 267 267 267 266 267 268 269 269 268 265 263 263 263 262 261 262 264 266 269 271 270 267 265 261 260
232 232 233 233 233 234 235 235 235 235 236 236 234 232 229 228 231 233 233 231 232 233 235 238 243 246 246 245 247 250 253 254 254 256 257 258 258 259 260 260 261 262 264 265 266 267 269 270 271 271 271 271 271 272 273 273 275 275 271 266 263 263 264 264 265 266 268 269 268 267 267 266 266 263 262 262 263 264 267 272 271 265 260 259 262
232 233 233 234 233 233 234 235 235 236 236 238 239 238 234 231 231 231 228 227 229 233 236 240 245 248 247 245 246 250 254 255 255 256 257 258 259 261 262 263 263 263 264 265 266 267 268 269 270 271 272 272 272 273 273 273 275 275 272 267 264 263 263 264 264 264 265 267 268 268 267 267 267 266 264 263 263 264 266 268 267 262 259 261 264
231 233 234 234 234 234 234 234 235 236 237 238 240 241 240 239 238 236 234 234 236 238 241 243 247 250 250 248 248 251 255 258 258 258 258 258 259 261 261 262 263 263 263 264 265 265 266 267 268 269 271 272 273 273 273 274 276 276 273 269 266 266 265 265 265 264 264 264 265 266 266 266 266 266 264 260 260 262 264 264 264 262 260 262 265
230 232 234 235 235 234 234 234 235 236 237 238 239 241 242 243 242 241 241 242 243 244 244 245 248 250 252 253 253 254 256 259 260 259 259 259 260 261 261 262 262 262 262 263 264 265 266 267 268 270 271 272 272 272 273 274 275 277 275 272 270 268 266 265 264 264 262 261 262 265 267 267 265 265 263 260 259 260 261 262 263 263 263 263 266
229 231 233 234 235 236 235 235 235 236 237 238 239 241 243 244 244 244 244 244 246 247 247 247 248 250 253 255 256 256 259 260 260 259 260 260 261 262 263 263 263 263 263 264 266 267 268 269 270 271 272 272 271 272 273 274 275 276 275 274 272 270 268 267 266 263 259 257 258 262 266 268 267 266 266 265 263 264 265 265 264 264 264 265 265
227 230 232 233 235 236 237 236 236 237 238 238 239 241 243 244 245 245 245 246 246 248 249 250 250 251 253 255 255 257 260 262 261 259 259 260 261 262 264 265 265 266 267 269 270 270 270 270 271 272 273 274 274 274 275 275 274 274 273 273 273 273 272 270 267 262 257 254 255 257 260 263 265 266 268 268 267 266 268 269 268 265 264 263 264
225 228 230 232 234 236 237 238 237 238 238 239 239 241 243 245 246 246 246 246 247 247 249 250 251 251 252 254 254 256 260 264 264 261 260 260 260 261 262 264 266 268 270 271 272 272 271 271 272 273 274 275 275 276 275 274 273 273 272 271 272 273 272 268 265 261 258 255 254 256 258 260 262 264 267 269 269 268 268 270 270 267 264 263 264
Height
5927 5929 5931 5933 5935 5936 5938 5939 5940 5941 5943 5944 5945 5946 5947 5949 5950 5951 5952 5954 5955 5956 5957 5958 5959 5959 5960 5960 5961 5961 5961 5962 5962 5962 5962 5963 5963 5963 5964 5965 5965 5966 5967 5967 5968 5969 5969 5970 5970 5971 5972 5972 5973 5974 5975 5975 5976 5976 5977 5978 5978 5978 5979 5979 5980 5980 5980 5981 5981 5981 5981 5982 5982 5982 5982 5982 5982 5982 5982 5982 5982 5982 5982 5981 5981
5924 5926 5928 5930 5932 5934 5936 5937 5938 5940 5941 5943 5944 5945 5946 5947 5948 5949 5951 5952 5953 5955 5956 5957 5958 5959 5959 5959 5960 5961 5961 5961 5962 5962 5962 5962 5962 5963 5964 5964 5965 5966 5966 5967 5968 5968 5969 5969 5970 5970 5971 5972 5972 5973 5974 5975 5975 5976 5977 5977 5978 5978 5979 5979 5979 5980 5980 5980 5981 5981 5981 5981 5981 5981 5981 5981 5982 5982 5982 5981 5982 5982 5982 5981 5981
5921 5923 5925 5927 5929 5931 5933 5935 5936 5938 5940 5941 5942 5943 5944 5945 5946 5948 5949 5950 5951 5953 5954 5955 5956 5957 5958 5959 5959 5960 5960 5961 5961 5961 5962 5962 5962 5963 5963 5964 5965 5965 5966 5967 5967 5968 5969 5969 5969 5970 5970 5971 5971 5972 5973 5974 5975 5975 5976 5977 5977 5978 5978 5979 5979 5979 5980 5980 5980 5981 5981 5981 5981 5981 5981 5981 5981 5981 5981 5981 5981 5981 5981 5981 5980
5917 5919 5921 5924 5926 5928 5931 5933 5934 5936 5938 5939 5940 5941 5942 5943 5944 5946 5947 5948 5950 5951 5952 5953 5955 5956 5956 5957 5958 5959 5959 5960 5960 5961 5961 5962 5962 5963 5963 5964 5964 5965 5966 5966 5967 5968 5968 5969 5969 5969 5970 5970 5970 5971 5972 5972 5973 5974 5975 5976 5976 5977 5978 5978 5979 5979 5979 5980 5980 5980 5980 5980 5981 5981 5981 5980 5980 5980 5980 5980 5980 5980 5980 5979 5979
5914 5916 5918 5920 5922 5925 5928 5930 5932 5934 5936 5937 5938 5938 5940 5941 5942 5943 5945 5946 5947 5949 5950 5952 5953 5954 5955 5955 5956 5957 5958 5959 5959 5960 5961 5962 5962 5963 5963 5963 5964 5964 5965 5965 5966 5967 5968 5968 5969 5969 5969 5970 5970 5970 5971 5971 5972 5973 5974 5974 5975 5976 5976 5977 5977 5978 5978 5979 5979 5980 5980 5980 5980 5980 5980 5980 5980 5979 5979 5979 5979 5978 5978 5978 5978
5914 5915 5916 5917 5920 5923 5925 5928 5930 5932 5933 5934 5935 5936 5937 5939 5940 5941 5943 5944 5945 5947 5948 5950 5951 5952 5953 5954 5955 5956 5957 5958 5958 5959 5960 5961 5962 5962 5963 5963 5963 5964 5964 5965 5965 5966 5967 5967 5968 5968 5969 5969 5970 5970 5970 5971 5971 5972 5972 5973 5974 5974 5975 5975 5976 5977 5977 5977 5978 5978 5978 5979 5979 5979 5979 5979 5978 5978 5978 5978 5978 5977 5977 5976 5976
5913 5914 5915 5916 5918 5920 5923 5925 5927 5929 5930 5931 5932 5933 5935 5937 5938 5939 5940 5941 5943 5945 5946 5948 5949 5950 5950 5952 5953 5954 5955 5956 5957 5958 5959 5960 5961 5961 5962 5963 5963 5963 5964 5964 5965 5965 5966 5967 5967 5968 5968 5969 5969 5970 5970 5970 5971 5971 5971 5972 5972 5973 5973 5974 5974 5975 5975 5976 5976 5976 5977 5977 5977 5976 5977 5977 5977 5977 5977 5976 5976 5976 5975 5975 5974
5912 5913 5914 5915 5917 5918 5920 5922 5924 5925 5927 5928 5929 5931 5933 5934 5936 5937 5938 5940 5941 5942 5944 5945 5946 5947 5949 5950 5951 5952 5954 5955 5956 5957 5957 5958 5959 5960 5961 5962 5962 5963 5963 5964 5964 5965 5965 5966 5967 5967 5968 5968 5969 5969 5970 5970 5970 5970 5970 5971 5971 5972 5972 5972 5973 5973 5974 5974 5974 5974 5975 5975 5975 5974 5974 5974 5975 5975 5975 5974 5974 5973 5973 5973 5972
5909 5910 5912 5914 5915 5917 5918 5919 5921 5922 5923 5925 5927 5929 5930 5932 5933 5935 5936 5938 5939 5940 5941 5943 5944 5946 5947 5948 5949 5951 5952 5953 5954 5955 5955 5956 5957 5958 5959 5960 5961 5962 5963 5963 5964 5964 5965 5965 5966 5966 5967 5968 5968 5969 5969 5969 5969 5969 5970 5970 5970 5971 5971 5971 5972 5972 5972 5972 5972 5972 5973 5973 5972 5972 5972 5972 5972 5972 5973 5973 5972 5971 5970 5970 5969
5907 5908 5910 5912 5913 5914 5915 5916 5917 5919 5920 5922 5923 5925 5927 5929 5931 5933 5934 5936 5937 5938 5939 5941 5942 5944 5945 5946 5947 5949 5950 5951 5951 5952 5953 5954 5955 5956 5958 5959 5960 5961 5962 5962 5963 5963 5964 5964 5965 5966 5966 5967 5967 5968 5968 5969 5969 5969 5969 5969 5969 5970 5970 5970 5971 5971 5971 5971 5971 5971 5971 5971 5970 5970 5970 5970 5970 5970 5970 5970 5970 5969 5968 5968 5967
5905 5906 5908 5909 5909 5910 5912 5913 5914 5916 5917 5918 5920 5922 5924 5926 5928 5930 5931 5933 5935 5936 5937 5939 5940 5941 5942 5944 5945 5947 5948 5949 5949 5950 5951 5952 5953 5954 5955 5956 5958 5959 5960 5961 5962 5962 5963 5963 5964 5964 5965 5966 5966 5967 5967 5968 5968 5968 5968 5968 5969 5969 5969 5969 5969 5970 5970 5970 5970 5969 5969 5969 5968 5968 5968 5968 5968 5968 5968 5967 5967 5967 5966 5966 5965
5901 5903 5904 5905 5905 5906 5908 5910 5912 5913 5914 5915 5917 5918 5920 5922 5924 5926 5928 5930 5931 5933 5934 5936 5937 5939 5940 5942 5943 5945 5946 5946 5946 5947 5948 5949 5950 5951 5953 5954 5955 5957 5958 5959 5960 5960 5961 5962 5963 5963 5964 5964 5964 5965 5965 5966 5966 5966 5967 5967 5967 5968 5968 5968 5968 5968 5968 5969 5968 5968 5968 5967 5967 5966 5966 5966 5966 5966 5965 5965 5964 5964 5964 5963 5962
5897 5899 5900 5900 5901 5902 5904 5905 5908 5909 5911 5912 5913 5915 5916 5918 5920 5922 5924 5926 5927 5929 5931 5933 5934 5936 5938 5939 5941 5942 5943 5943 5943 5944 5945 5946 5947 5949 5950 5951 5953 5954 5955 5957 5958 5958 5959 5960 5961 5962 5962 5962 5963 5963 5963 5964 5964 5965 5965 5966 5966 5966 5967 5967 5967 5967 5967 5967 5967 5967 5966 5966 5965 5964 5964 5964 5964 5963 5963 5962 5962 5961 5961 5960 5959
5892 5894 5895 5896 5897 5898 5899 5901 5903 5905 5907 5908 5909 5910 5912 5915 5917 5919 5920 5922 5923 5926 5928 5930 5931 5933 5934 5936 5938 5939 5940 5940 5941 5942 5943 5943 5944 5946 5947 5948 5950 5951 5953 5954 5955 5956 5957 5958 5959 5960 5960 5960 5961 5961 5961 5961 5962 5963 5963 5964 5964 5964 5965 5965 5966 5966 5966 5966 5966 5965 5964 5964 5964 5963 5962 5962 5961 5961 5960 5960 5959 5959 5958 5957 5956
5887 5889 5891 5892 5893 5894 5897 5899 5901 5903 5905 5905 5906 5907 5908 5910 5913 5915 5916 5918 5920 5922 5924 5926 5928 5929 5931 5933 5935 5936 5937 5938 5938 5939 5940 5941 5942 5943 5945 5946 5947 5949 5950 5951 5952 5953 5954 5955 5956 5957 5957 5958 5958 5958 5959 5959 5960 5961 5961 5962 5962 5963 5963 5964 5964 5964 5965 5965 5964 5964 5962 5962 5962 5961 5960 5959 5959 5958 5958 5958 5957 5956 5955 5954 5953
5881 5883 5885 5887 5888 5890 5892 5895 5897 5899 5902 5904 5906 5907 5908 5909 5910 5912 5913 5915 5917 5919 5920 5923 5925 5926 5928 5930 5932 5933 5935 5935 5935 5936 5937 5938 5939 5941 5943 5944 5945 5946 5947 5948 5949 5950 5951 5952 5953 5954 5955 5955 5955 5955 5956 5957 5957 5958 5959 5959 5960 5961 5961 5961 5962 5963 5963 5963 5963 5962 5961 5960 5959 5959 5958 5957 5957 5956 5956 5955 5954 5954 5953 5952 5950
5875 5879 5881 5882 5884 5886 5889 5893 5895 5896 5898 5901 5905 5907 5909 5910 5910 5911 5911 5912 5913 5915 5917 5919 5921 5923 5924 5927 5929 5931 5932 5932 5933 5934 5934 5935 5936 5938 5941 5942 5943 5944 5945 5946 5946 5947 5948 5949 5950 5951 5952 5952 5952 5952 5953 5954 5955 5956 5956 5957 5957 5959 5959 5959 5959 5961 5961 5961 5961 5960 5958 5957 5957 5956 5956 5955 5955 5954 5954 5953 5951 5951 5950 5949 5947
5874 5878 5880 5880 5882 5885 5889 5893 5895 5895 5896 5899 5901 5903 5905 5906 5907 5908 5909 5910 5911 5913 5914 5915 5917 5919 5921 5924 5927 5928 5929 5930 5931 5931 5932 5933 5934 5936 5938 5939 5940 5942 5942 5943 5944 5945 5946 5946 5947 5948 5949 5949 5949 5949 5949 5951 5952 5953 5953 5954 5955 5956 5956 5956 5957 5958 5959 5959 5959 5958 5956 5955 5954 5954 5954 5953 5952 5952 5951 5950 5949 5948 5947 5945 5944
5872 5876 5877 5877 5878 5881 5885 5888 5891 5892 5894 5895 5895 5896 5898 5900 5902 5903 5904 5907 5909 5910 5911 5913 5914 5916 5919 5921 5923 5925 5926 5927 5928 5929 5930 5930 5932 5933 5935 5937 5938 5939 5940 5941 5941 5942 5943 5944 5944 5945 5946 5946 5945 5946 5946 5947 5949 5950 5950 5951 5952 5953 5952 5952 5953 5955 5956 5956 5956 5955 5954 5953 5952 5951 5951 5950 5950 5949 5948 5947 5946 5945 5944 5942 5941
5867 5870 5872 5873 5874 5876 5880 5883 5885 5887 5889 5891 5891 5892 5893 5894 5895 5896 5898 5901 5904 5906 5908 5910 5912 5913 5915 5917 5919 5921 5923 5923 5924 5926 5927 5927 5928 5930 5932 5934 5936 5937 5937 5938 5939 5939 5940 5941 5941 5942 5942 5942 5942 5942 5942 5943 5945 5946 5947 5948 5950 5949 5948 5949 5950 5951 5952 5953 5953 5952 5951 5950 5949 5948 5948 5947 5947 5946 5945 5944 5943 5941 5940 5939 5938
5862 5864 5867 5869 5870 5871 5874 5877 5880 5882 5884 5885 5886 5887 5888 5889 5890 5891 5892 5894 5897 5901 5904 5906 5908 5910 5911 5913 5915 5917 5919 5920 5920 5922 5923 5924 5925 5926 5928 5931 5932 5933 5934 5935 5936 5937 5937 5937 5938 5938 5938 5938 5938 5938 5939 5940 5941 5942 5943 5945 5946 5945 5945 5945 5946 5947 5948 5949 5949 5948 5947 5946 5945 5945 5945 5944 5943 5942 5942 5940 5939 5938 5937 5936 5935
5857 5859 5862 5864 5866 5867 5868 5871 5874 5876 5878 5879 5881 5883 5884 5886 5887 5889 5890 5890 5891 5894 5898 5901 5903 5905 5907 5909 5911 5913 5915 5915 5916 5918 5919 5920 5921 5922 5925 5927 5928 5928 5930 5932 5933 5933 5933 5934 5934 5933 5933 5934 5935 5935 5935 5935 5936 5938 5940 5941 5942 5941 5941 5942 5942 5942 5943 5944 5944 5944 5943 5942 5942 5942 5941 5941 5940 5939 5939 5937 5936 5935 5934 5933 5933
5851 5854 5856 5859 5861 5863 5864 5866 5868 5870 5872 5874 5876 5879 5881 5883 5885 5888 5889 5889 5888 5888 5891 5895 5898 5900 5902 5904 5907 5909 5910 5911 5912 5913 5915 5916 5917 5918 5920 5922 5923 5924 5926 5928 5929 5929 5929 5929 5929 5929 5929 5930 5931 5931 5931 5931 5933 5935 5937 5937 5937 5937 5938 5939 5939 5939 5939 5939 5939 5940 5939 5938 5938 5938 5938 5938 5937 5937 5936 5934 5933 5932 5931 5930 5929
5846 5849 5850 5853 5856 5858 5860 5862 5863 5865 5867 5870 5872 5875 5877 5879 5881 5884 5886 5888 5888 5886 5886 5889 5893 5896 5898 5900 5902 5904 5905 5906 5908 5909 5911 5912 5913 5914 5916 5918 5919 5920 5922 5923 5923 5923 5924 5925 5925 5925 5925 5927 5927 5927 5927 5929 5930 5932 5933 5933 5933 5934 5935 5935 5935 5935 5935 5935 5935 5935 5934 5934 5934 5934 5934 5934 5934 5933 5932 5931 5930 5929 5928 5927 5926
5840 5843 5845 5847 5850 5852 5855 5858 5859 5861 5862 5865 5868 5870 5872 5874 5876 5879 5881 5885 5887 5886 5884 5886 5889 5893 5895 5897 5899 5900 5901 5902 5903 5905 5906 5907 5909 5910 5912 5913 5914 5916 5917 5918 5919 5919 5919 5920 5920 5920 5921 5922 5922 5923 5924 5925 5927 5928 5928 5929 5929 5930 5931 5932 5931 5931 5931 5931 5930 5930 5930 5930 5929 5930 5930 5930 5930 5930 5929 5928 5927 5926 5925 5924 5922
5833 5837 5839 5841 5843 5846 5850 5853 5855 5857 5858 5860 5863 5865 5867 5870 5872 5873 5875 5880 5884 5885 5883 5883 5886 5889 5891 5893 5895 5896 5897 5898 5899 5900 5902 5903 5905 5906 5908 5909 5910 5911 5913 5913 5914 5914 5915 5914 5915 5915 5916 5916 5918 5919 5921 5922 5922 5923 5924 5924 5925 5925 5926 5927 5927 5927 5927 5927 5927 5926 5925 5925 5925 5925 5926 5926 5927 5926 5926 5925 5924 5923 5922 5921 5920
5827 5830 5833 5835 5837 5840 5844 5847 5849 5852 5853 5856 5858 5861 5862 5865 5867 5869 5871 5875 5879 5882 5881 5881 5883 5885 5888 5889 5891 5892 5893 5894 5895 5896 5898 5899 5901 5902 5903 5905 5905 5906 5908 5908 5909 5909 5910 5909 5910 5911 5912 5913 5914 5916 5917 5917 5918 5918 5919 5919 5919 5920 5921 5922 5922 5923 5923 5923 5923 5922 5921 5920 5921 5921 5922 5922 5923 5923 5922 5922 5920 5919 5918 5918 5919
5820 5823 5826 5829 5831 5834 5837 5841 5844 5846 5848 5850 5853 5856 5858 5860 5863 5865 5867 5870 5873 5876 5877 5877 5879 5881 5883 5885 5886 5888 5889 5890 5892 5893 5894 5895 5896 5897 5898 5900 5900 5901 5902 5903 5902 5904 5905 5906 5907 5909 5910 5910 5911 5913 5913 5913 5913 5913 5913 5914 5914 5915 5916 5917 5917 5917 5917 5917 5917 5918 5917 5917 5917 5917 5918 5918 5919 5918 5917 5917 5916 5915 5913 5913 5915
5813 5816 5820 5823 5825 5828 5831 5835 5838 5841 5843 5844 5847 5850 5852 5854 5857 5861 5863 5865 5868 5870 5871 5873 5875 5877 5879 5880 5882 5884 5886 5888 5888 5888 5888 5889 5891 5892 5894 5895 5895 5896 5896 5896 5897 5899 5901 5903 5904 5906 5907 5907 5908 5909 5909 5909 5908 5908 5909 5909 5909 5910 5911 5911 5912 5912 5911 5911 5912 5913 5913 5912 5912 5912 5913 5913 5913 5911 5911 5911 5910 5910 5908 5906 5908
5805 5809 5812 5816 5819 5822 5825 5828 5831 5835 5837 5838 5841 5844 5847 5849 5851 5855 5858 5861 5863 5864 5866 5868 5871 5872 5874 5876 5878 5880 5882 5884 5884 5883 5885 5886 5887 5888 5889 5890 5890 5891 5891 5891 5892 5895 5897 5899 5901 5902 5903 5903 5904 5904 5904 5904 5904 5904 5905 5905 5905 5906 5906 5906 5906 5906 5905 5906 5906 5907 5907 5908 5908 5908 5908 5908 5907 5906 5906 5906 5905 5904 5901 5900 5902
5796 5800 5805 5808 5812 5816 5819 5821 5824 5828 5831 5832 5835 5838 5841 5843 5846 5849 5852 5855 5857 5859 5861 5864 5866 5867 5870 5873 5875 5876 5878 5880 5880 5880 5881 5882 5883 5883 5884 5885 5885 5886 5886 5886 5888 5890 5892 5895 5896 5898 5899 5899 5900 5900 5900 5900 5900 5900 5901 5901 5901 5902 5902 5901 5900 5899 5899 5900 5902 5902 5903 5903 5903 5903 5903 5903 5903 5902 5901 5901 5902 5900 5897 5897 5898
5788 5792 5796 5800 5804 5809 5812 5814 5817 5821 5824 5826 5828 5832 5835 5837 5840 5843 5846 5849 5851 5853 5856 5859 5861 5863 5865 5868 5870 5871 5873 5875 5875 5876 5876 5877 5878 5879 5879 5880 5880 5880 5881 5882 5884 5886 5888 5890 5891 5892 5893 5895 5896 5896 5896 5896 5896 5896 5897 5897 5897 5897 5897 5896 5895 5894 5894 5895 5897 5897 5897 5898 5898 5898 5898 5898 5898 5897 5897 5897 5897 5896 5895 5895 5894
5781 5784 5788 5792 5796 5800 5804 5807 5810 5813 5817 5820 5822 5825 5828 5831 5834 5837 5840 5843 5846 5848 5850 5853 5856 5858 5860 5862 5864 5866 5868 5869 5869 5870 5871 5872 5873 5874 5874 5874 5875 5875 5876 5878 5881 5883 5884 5885 5886 5887 5888 5889 5891 5892 5892 5892 5892 5892 5892 5893 5892 5892 5892 5891 5890 5890 5890 5890 5891 5891 5892 5892 5892 5893 5893 5892 5892 5893 5893 5893 5893 5893 5893 5892 5891
5774 5777 5780 5784 5788 5792 5796 5800 5803 5806 5809 5813 5816 5819 5822 5825 5828 5831 5834 5837 5839 5842 5845 5848 5850 5852 5854 5856 5858 5860 5862 5863 5863 5864 5866 5867 5867 5868 5868 5869 5870 5871 5872 5875 5877 5879 5880 5880 5881 5882 5882 5883 5884 5886 5887 5887 5887 5887 5888 5888 5888 5888 5887 5886 5886 5886 5885 5885 5885 5886 5887 5887 5887 5887 5887 5887 5887 5888 5888 5889 5889 5889 5889 5888 5887
5766 5770 5773 5777 5781 5784 5788 5792 5796 5799 5802 5805 5808 5811 5815 5818 5822 5825 5827 5830 5833 5836 5839 5842 5844 5845 5847 5849 5851 5853 5855 5857 5858 5859 5860 5861 5861 5861 5863 5864 5866 5868 5869 5871 5873 5874 5875 5875 5876 5877 5877 5877 5878 5879 5881 5882 5882 5882 5882 5883 5883 5883 5882 5881 5881 5880 5880 5880 5880 5881 5881 5881 5881 5882 5882 5882 5882 5882 5883 5883 5884 5884 5884 5883 5882
5757 5762 5765 5770 5774 5777 5780 5784 5788 5791 5794 5797 5801 5804 5807 5811 5815 5818 5821 5824 5827 5830 5833 5835 5837 5839 5840 5842 5844 5846 5848 5850 5852 5853 5854 5854 5855 5856 5858 5860 5862 5864 5865 5867 5868 5869 5870 5870 5871 5871 5871 5872 5872 5873 5874 5876 5876 5877 5877 5878 5878 5878 5877 5876 5876 5875 5874 5875 5875 5875 5875 5875 5876 5876 5876 5877 5877 5877 5877 5877 5878 5878 5878 5878 5878
5748 5753 5757 5761 5766 5770 5773 5777 5780 5784 5787 5790 5794 5797 5800 5803 5807 5811 5814 5817 5820 5823 5826 5828 5831 5833 5834 5836 5838 5840 5841 5843 5844 5846 5847 5849 5850 5852 5854 5856 5858 5859 5861 5862 5862 5863 5864 5865 5865 5865 5866 5867 5867 5867 5868 5869 5870 5871 5871 5872 5873 5872 5871 5870 5870 5870 5869 5869 5870 5870 5870 5870 5870 5870 5870 5871 5872 5871 5871 5871 5872 5872 5873 5874 5873
5738 5744 5749 5753 5757 5762 5766 5770 5773 5776 5779 5783 5787 5790 5794 5797 5799 5803 5806 5810 5813 5817 5819 5821 5824 5826 5827 5829 5831 5833 5835 5836 5837 5839 5841 5844 5846 5848 5850 5851 5852 5853 5855 5856 5856 5857 5858 5859 5859 5859 5860 5861 5861 5861 5861 5862 5863 5864 5865 5866 5867 5867 5866 5864 5864 5864 5864 5864 5865 5865 5864 5864 5864 5864 5864 5865 5866 5866 5866 5866 5866 5867 5868 5868 5867
5729 5734 5740 5744 5749 5754 5758 5762 5766 5769 5772 5776 5779 5783 5787 5790 5793 5796 5799 5803 5806 5810 5812 5814 5816 5818 5820 5822 5825 5826 5828 5830 5831 5833 5836 5838 5840 5842 5844 5845 5846 5847 5848 5850 5850 5851 5852 5853 5854 5854 5854 5854 5855 5855 5855 5855 5856 5857 5859 5860 5860 5860 5860 5859 5858 5858 5859 5859 5859 5859 5859 5858 5858 5858 5858 5859 5860 5861 5861 5860 5860 5861 5862 5861 5861
5719 5725 5731 5736 5740 5745 5750 5755 5758 5762 5765 5768 5772 5777 5780 5784 5786 5789 5793 5796 5800 5803 5806 5807 5809 5811 5813 5816 5818 5820 5822 5824 5826 5828 5830 5832 5834 5836 5837 5838 5839 5840 5842 5844 5846 5847 5848 5848 5848 5848 5848 5848 5848 5848 5848 5848 5849 5850 5851 5853 5853 5853 5853 5853 5853 5853 5853 5854 5854 5854 5853 5853 5852 5852 5852 5853 5854 5855 5855 5855 5855 5855 5855 5855 5854
5710 5716 5721 5727 5732 5737 5742 5747 5751 5755 5758 5762 5766 5770 5773 5777 5780 5783 5786 5790 5793 5796 5799 5801 5802 5805 5807 5810 5812 5814 5815 5817 5819 5821 5824 5826 5827 5829 5831 5833 5834 5835 5837 5839 5841 5842 5843 5842 5842 5842 5842 5841 5842 5842 5842 5842 5842 5843 5844 5846 5847 5846 5846 5846 5846 5846 5846 5847 5847 5847 5847 5847 5847 5846 5846 5847 5848 5848 5849 5849 5849 5849 5849 5849 5848
5700 5706 5712 5717 5723 5729 5734 5739 5744 5747 5751 5755 5759 5763 5767 5770 5774 5777 5780 5783 5786 5790 5792 5794 5797 5799 5802 5804 5806 5807 5809 5811 5813 5815 5817 5819 5821 5823 5825 5827 5828 5829 5831 5833 5834 5834 5835 5835 5836 5836 5835 5835 5835 5836 5836 5835 5835 5836 5837 5839 5839 5839 5839 5839 5839 5839 5839 5840 5840 5841 5842 5842 5841 5841 5840 5840 5841 5842 5843 5843 5843 5843 5843 5842 5841
5690 5696 5702 5709 5715 5720 5725 5730 5735 5739 5744 5748 5752 5756 5759 5763 5766 5770 5774 5777 5780 5783 5786 5789 5791 5794 5796 5798 5800 5801 5803 5804 5806 5808 5810 5812 5814 5816 5818 5819 5821 5822 5823 5825 5825 5826 5826 5827 5828 5829 5829 5828 5828 5828 5829 5829 5829 5827 5827 5829 5831 5831 5831 5831 5831 5832 5833 5833 5834 5835 5835 5834 5834 5834 5834 5834 5834 5835 5836 5836 5836 5836 5836 5835 5834
5680 5686 5693 5700 5706 5711 5716 5722 5727 5731 5735 5740 5744 5748 5752 5756 5759 5763 5767 5770 5774 5777 5780 5783 5786 5788 5790 5792 5794 5795 5797 5799 5800 5802 5803 5805 5806 5808 5810 5812 5813 5814 5815 5816 5817 5818 5818 5819 5821 5821 5821 5821 5820 5821 5822 5823 5823 5821 5820 5821 5822 5823 5823 5824 5824 5825 5826 5827 5827 5828 5827 5826 5826 5826 5827 5827 5827 5828 5829 5829 5829 5829 5829 5828 5828
5671 5677 5684 5691 5697 5702 5707 5713 5718 5723 5727 5731 5735 5740 5744 5748 5752 5756 5760 5764 5767 5771 5774 5777 5780 5782 5784 5786 5788 5789 5791 5792 5794 5795 5797 5798 5800 5801 5803 5805 5806 5807 5808 5808 5810 5811 5811 5812 5812 5812 5812 5812 5812 5813 5813 5814 5814 5815 5815 5814 5813 5813 5814 5815 5816 5817 5818 5819 5820 5821 5819 5818 5817 5818 5819 5819 5820 5820 5821 5821 5820 5821 5821 5821 5821
5662 5668 5675 5681 5688 5694 5699 5704 5709 5715 5719 5723 5727 5731 5736 5740 5745 5749 5752 5756 5760 5764 5767 5771 5773 5776 5778 5780 5782 5783 5785 5786 5787 5789 5790 5792 5793 5795 5796 5798 5799 5799 5800 5801 5802 5803 5803 5803 5803 5804 5804 5804 5804 5804 5804 5803 5804 5806 5808 5807 5805 5803 5804 5805 5807 5809 5810 5810 5811 5812 5811 5809 5808 5809 5810 5811 5812 5812 5812 5813 5813 5813 5814 5814 5814
5653 5660 5666 5672 5679 5685 5691 5696 5701 5707 5712 5716 5719 5723 5727 5732 5737 5741 5745 5749 5752 5756 5760 5764 5767 5769 5771 5773 5775 5777 5778 5779 5780 5782 5783 5785 5786 5788 5789 5790 5791 5791 5792 5793 5794 5794 5794 5795 5795 5795 5795 5795 5795 5795 5794 5794 5795 5797 5798 5797 5796 5795 5794 5795 5797 5799 5800 5800 5801 5800 5799 5798 5798 5798 5799 5800 5802 5803 5804 5804 5805 5806 5806 5806 5805
5645 5651 5657 5663 5670 5676 5682 5688 5693 5699 5704 5708 5712 5716 5720 5724 5729 5734 5738 5741 5745 5749 5753 5756 5759 5762 5764 5766 5768 5770 5772 5773 5774 5775 5776 5778 5779 5780 5781 5782 5783 5784 5785 5785 5785 5786 5786 5786 5786 5786 5787 5786 5786 5785 5785 5785 5786 5787 5787 5786 5785 5784 5783 5782 5784 5788 5790 5791 5792 5791 5789 5788 5788 5789 5790 5791 5793 5794 5795 5796 5797 5797 5798 5798 5797
5637 5643 5649 5655 5661 5667 5674 5680 5685 5691 5696 5701 5705 5709 5712 5717 5721 5726 5730 5734 5738 5741 5745 5749 5752 5755 5758 5760 5762 5764 5765 5766 5767 5768 5769 5771 5772 5773 5774 5775 5776 5776 5777 5778 5778 5778 5779 5778 5778 5778 5778 5777 5777 5776 5776 5776 5777 5778 5777 5776 5776 5774 5770 5768 5770 5775 5780 5782 5783 5784 5782 5780 5781 5782 5783 5784 5786 5787 5787 5788 5789 5789 5789 5788 5788
5630 5636 5642 5647 5653 5659 5665 5672 5678 5683 5688 5693 5697 5701 5704 5709 5713 5718 5723 5727 5731 5734 5738 5742 5745 5748 5751 5753 5755 5757 5758 5759 5760 5762 5763 5764 5765 5767 5767 5768 5769 5770 5770 5771 5771 5771 5771 5771 5771 5770 5769 5768 5768 5767 5766 5766 5766 5767 5767 5767 5767 5766 5762 5758 5758 5763 5768 5771 5773 5774 5774 5774 5774 5775 5775 5777 5778 5779 5780 5780 5781 5780 5780 5779 5779
5624 5630 5635 5641 5646 5652 5658 5664 5670 5675 5680 5685 5689 5693 5696 5700 5705 5710 5715 5719 5724 5727 5731 5734 5738 5741 5744 5747 5749 5750 5752 5753 5754 5755 5756 5758 5759 5761 5761 5762 5763 5763 5763 5764 5764 5764 5764 5764 5764 5763 5762 5761 5760 5758 5756 5755 5756 5757 5757 5757 5757 5756 5753 5751 5750 5752 5757 5761 5763 5764 5765 5766 5767 5767 5768 5769 5770 5770 5771 5772 5772 5772 5772 5771 5770